Weather History for Louisville, KY

Change the Weather History Date:

Thursday, February 14, 2013

  Actual Average Record
Temperature  
Mean Temperature 47 °F 38 °F  
Max Temperature 58 °F 47 °F 69 °F (1949)
Min Temperature 36 °F 30 °F 0 °F (1905)
Degree Days  
Heating Degree Days 18 26  
Month to date heating degree days 368 390  
Since 1 July heating degree days 2690 2899  
Cooling Degree Days 0 0  
Month to date cooling degree days 0 0  
Year to date cooling degree days 0 0  
Moisture  
Dew Point 34 °F    
Average Humidity 63    
Maximum Humidity 85    
Minimum Humidity 40    
Precipitation  
Precipitation 0.00 in 0.11 in 1.39 in (1949)
Month to date precipitation 0.55 1.58  
Year to date precipitation 5.65 4.82  
Snow  
Snow 0.00 in 0.10 in 4.60 in (1970)
Month to date snowfall 3.2 2.5  
Since 1 July snowfall 8.1 9.0  
Snow Depth 0.00 in    
Sea Level Pressure  
Sea Level Pressure 29.94 in    
Wind  
Wind Speed 10 mph (SW)    
Max Wind Speed 21 mph    
Max Gust Speed 25 mph    
Visibility 10 miles    
Events      
T = Trace of Precipitation, MM = Missing Value Source: NWS Daily Summary

Daily Weather History Graph

Daily Weather History Graph

Search for Another Location

Airport:

Trip Planner

Search our weather history database for the weather conditions in past years. The results will help you decide how hot, cold, wet, or windy it might be!

Date:

Astronomy

Feb. 14, 2013 Rise Set
Actual Time 7:34 AM EST 6:20 PM EST
Civil Twilight 7:07 AM EST 6:47 PM EST
Nautical Twilight 6:36 AM EST 7:18 PM EST
Astronomical Twilight 6:05 AM EST 7:49 PM EST
Moon 9:40 AM EST (2/14) 11:17 PM EST (2/14)
Length of Visible Light 11h 40m
Length of Day
10h 46m
Waxing Crescent, 21% of the Moon is Illuminated
Feb 14
Waxing Crescent
Feb 17
First Quarter
Feb 25
Full
Mar 4
Last Quarter
Mar 11
New

Hourly Weather History & Observations

Time (EST) Temp. Windchill Dew Point Humidity Pressure Visibility Wind Dir Wind Speed Gust Speed Precip Events Conditions
12:56 AM 37.0 °F 30.4 °F 32.0 °F 82% 29.96 in 10.0 mi South 9.2 mph - N/A   Clear
1:56 AM 37.0 °F 33.3 °F 32.0 °F 82% 29.96 in 10.0 mi South 4.6 mph - N/A   Mostly Cloudy
2:56 AM 37.0 °F 31.0 °F 33.1 °F 86% 29.94 in 10.0 mi South 8.1 mph - N/A   Mostly Cloudy
3:44 AM 37.4 °F 31.4 °F 33.8 °F 87% 29.94 in 10.0 mi South 8.1 mph - N/A   Overcast
3:56 AM 37.9 °F 32.7 °F 33.1 °F 83% 29.94 in 10.0 mi SSW 6.9 mph - N/A   Overcast
4:06 AM 37.4 °F 32.1 °F 33.8 °F 87% 29.93 in 10.0 mi SSW 6.9 mph - N/A   Overcast
4:56 AM 39.0 °F 32.8 °F 34.0 °F 82% 29.94 in 10.0 mi SSW 9.2 mph - N/A   Overcast
5:56 AM 37.9 °F 30.9 °F 34.0 °F 86% 29.93 in 10.0 mi SW 10.4 mph - N/A   Overcast
6:56 AM 37.9 °F 31.5 °F 34.0 °F 86% 29.94 in 10.0 mi SW 9.2 mph - N/A   Overcast
7:56 AM 37.9 °F 32.7 °F 34.0 °F 86% 29.94 in 9.0 mi SSW 6.9 mph - N/A   Overcast
8:56 AM 39.0 °F 31.8 °F 34.0 °F 82% 29.95 in 9.0 mi SSW 11.5 mph - N/A   Overcast
10:23 AM 42.8 °F 37.5 °F 35.6 °F 76% 29.94 in 10.0 mi SSW 9.2 mph - N/A   Mostly Cloudy
10:56 AM 44.1 °F 38.1 °F 35.1 °F 71% 29.94 in 10.0 mi SW 11.5 mph - N/A   Mostly Cloudy
11:56 AM 48.9 °F - 36.0 °F 61% 29.93 in 10.0 mi SSW 11.5 mph - N/A   Partly Cloudy
12:56 PM 52.0 °F - 36.0 °F 54% 29.90 in 10.0 mi SW 11.5 mph 19.6 mph N/A   Scattered Clouds
1:56 PM 55.0 °F - 35.1 °F 47% 29.89 in 10.0 mi SW 16.1 mph 24.2 mph N/A   Partly Cloudy
2:56 PM 57.0 °F - 34.0 °F 42% 29.88 in 10.0 mi SW 15.0 mph 19.6 mph N/A   Partly Cloudy
3:56 PM 57.9 °F - 34.0 °F 41% 29.88 in 10.0 mi WSW 15.0 mph 24.2 mph N/A   Scattered Clouds
4:56 PM 55.9 °F - 34.0 °F 44% 29.90 in 10.0 mi West 16.1 mph 23.0 mph N/A   Scattered Clouds
5:56 PM 54.0 °F - 33.1 °F 45% 29.93 in 10.0 mi West 12.7 mph - N/A   Scattered Clouds
6:56 PM 50.0 °F - 33.1 °F 52% 29.95 in 10.0 mi West 9.2 mph - N/A   Scattered Clouds
7:56 PM 48.9 °F - 34.0 °F 56% 29.96 in 10.0 mi WSW 9.2 mph - N/A   Scattered Clouds
8:56 PM 45.0 °F 41.2 °F 34.0 °F 65% 29.98 in 10.0 mi West 6.9 mph - N/A   Scattered Clouds
9:56 PM 46.0 °F 43.9 °F 33.1 °F 61% 29.99 in 10.0 mi West 4.6 mph - N/A   Partly Cloudy
10:56 PM 46.0 °F 43.1 °F 33.1 °F 61% 30.01 in 10.0 mi WNW 5.8 mph - N/A   Scattered Clouds
11:56 PM 46.0 °F 40.2 °F 33.1 °F 61% 30.02 in 10.0 mi North 12.7 mph 18.4 mph N/A   Overcast